Regional Weather Roundup
Issued by NWS San Diego, CA

Home | Current Version | Previous Version | Text Only | Print | Product List | Glossary On
Versions: 1 2 3 4 5 6 7 8 9 10 11 12 13 14 15 16 17 18 19 20 21 22 23 24 25 26 27 28 29 30 31 32 33 34 35 36 37 38 39 40 41 42 43 44 45 46 47 48 49 50
000
ASUS46 KSGX 240810
RWRSGX

SAN DIEGO HOURLY WEATHER ROUNDUP
NATIONAL WEATHER SERVICE SAN DIEGO CA
100 AM PDT FRI OCT 24 2014

NOTE: "FAIR" INDICATES FEW OR NO CLOUDS BELOW 12,000 FEET WITH NO
SIGNIFICANT WEATHER AND/OR OBSTRUCTIONS TO VISIBILITY.

CAZ042-043-060-061-PZZ750-775-240900-

GREATER SAN DIEGO AREA

CITY           SKY/WX    TMP DP  RH WIND       PRES   REMARKS
LINDBERGH FLD  CLEAR     67  55  65 CALM      29.96S
POINT LOMA       N/A     68  60  76 N5          N/A
NATIONAL CITY    N/A     64  59  85 CALM      29.96R
CHULA VISTA      N/A     61  56  85 CALM      29.89S
IMPERIAL BEACH CLEAR     58  56  93 CALM      29.95S
BROWN FIELD    CLEAR     64  48  56 E5        29.96S
MIRAMAR MCAS   PTCLDY    62  45  53 NE5       29.96S
MONTGOMERY FLD CLEAR     65  55  70 CALM      29.96S

$$

NORTH SAN DIEGO COUNTY

CITY           SKY/WX    TMP DP  RH WIND       PRES   REMARKS
CAMP PENDLETON CLEAR     55  48  77 CALM      29.96S
OCEANSIDE AP   CLEAR     54  52  93 CALM      29.95S
OCEANSIDE HBR    N/A     61  56  82 E3        29.98S
CARLSBAD       CLEAR     64  49  57 CALM      29.95S
DEL MAR          N/A     64  62  94 CALM      29.98S
LA JOLLA SCRIP   N/A     67  65  92 CALM      29.93S
FALLBROOK        N/A     67  49  52 CALM      29.95S
ESCONDIDO        N/A     62  47  57 CALM      29.98S
SAN MARCOS       N/A     65  49  56 CALM      29.94S
POWAY            N/A     57  45  65 CALM      29.98R

$$

EAST SAN DIEGO COUNTY

CITY           SKY/WX    TMP DP  RH WIND       PRES   REMARKS
RAMONA         CLEAR     55  39  54 CALM      30.00S
SANTEE LAKES     N/A     60  47  61 CALM      29.98R
LA MESA          N/A     68  52  56 CALM      29.90S
JAMUL            N/A     62  43  49 CALM      29.95S
DESCANSO N       N/A     58  33  39 E2        29.89S
MT. LAGUNA OBS   N/A     62  20  19 CALM      29.80S
CAMPO            N/A     53  35  50 NE8       30.05S

$$

ORANGE COUNTY AND THE LOS ANGELES BASIN

CITY           SKY/WX    TMP DP  RH WIND       PRES   REMARKS
JOHN WAYNE AP  CLEAR     67  54  63 CALM      29.96S
LAKE FOREST FR   N/A     65  42  42 CALM      29.85S
SANTA ANA        N/A     61  56  84 CALM      29.92R
HUNTINGTON BCH   N/A     58  56  95 CALM      29.99R
LOS ALAMITOS   FAIR      61  60  96 E2        29.96S
FULLERTON      CLEAR     64  55  72 CALM      29.96R
LONG BEACH     CLEAR     63  59  87 CALM      29.96R
L.A. AP        PTCLDY    67  67 100 NW3       29.97R
L.A. DOWNTOWN  CLEAR     64  58  80 CALM      29.96S

$$

THE INLAND EMPIRE

CITY           SKY/WX    TMP DP  RH WIND       PRES   REMARKS
CORONA         CLEAR     53  45  74 CALM      29.98S
CHINO          CLEAR     60  52  74 N3        29.99S HAZE
ONTARIO        CLEAR     65  44  46 NE3       29.99R
RIVERSIDE AP   CLEAR     64  50  60 NE3       29.98S
RIV CYN CREST    N/A     67  54  63 S2        29.96S
MORENO VALLEY    N/A     68  44  42 CALM      29.19S
MARCH ARB      CLEAR     56  40  53 CALM      30.01S
HORSETHIEF CYN   N/A     67  33  28 S1        30.00S
PERRIS           N/A     66  47  50 CALM      29.97S
MENIFEE          N/A     62  50  65 CALM      30.05S
HEMET EAST       N/A     70  27  19 CALM      29.96S
FRENCH VALLEY  FAIR      59  32  36 CALM      30.01S
TEMECULA         N/A     62  45  54 CALM      29.96S

$$

SAN BERNARDINO AND RIVERSIDE COUNTY MOUNTAINS

CITY           SKY/WX    TMP DP  RH WIND       PRES   REMARKS
BIG BEAR AP    CLEAR     36  18  48 CALM      30.31S
ANGELUS OAKS     N/A     55  29  36 CALM      29.95S
PINE COVE        N/A     60  27  28 CALM      29.90S

$$

SOUTHERN DESERT INCLUDING THE COACHELLA VALLEY

CITY           SKY/WX    TMP DP  RH WIND       PRES   REMARKS
PALM SPRINGS   CLEAR     76  34  21 NW9       29.97R
THOUSAND PALMS   N/A     70  45  40 W2        29.92R
PALM DESERT      N/A     71  51  49 CALM      31.01S
THERMAL        CLEAR     61  50  67 N5        29.91R
BLYTHE         CLEAR     70  41  34 N3        29.94R
IMPERIAL AP    CLEAR     70  50  49 CALM      29.91R
EL CENTRO NAS  CLEAR     68  43  40 W6        29.92R
YUMA AZ        CLEAR     73  48  41 S5        29.93R

$$

UPPER DESERT

CITY           SKY/WX    TMP DP  RH WIND       PRES   REMARKS
VICTORVILLE AP CLEAR     61  27  27 S5        30.07S
HESPERIA         N/A     61  30  31 CALM      30.09S
APPLE VALLEY     N/A     50  37  60 CALM      30.14R
PALMDALE       CLEAR     56  26  31 SW6       30.06R
LANCASTER      CLEAR     58  28  32 CALM      30.05R
EDWARDS AFB    CLEAR     54  24  31 CALM      30.03R
DAGGETT        CLEAR     62  32  32 SW5       30.02S
29 PALMS N     CLEAR     65  37  35 CALM      30.10R
NEEDLES        CLEAR     71  39  31 CALM      29.98R

$$

REGIONAL REPORTS

CITY           SKY/WX    TMP DP  RH WIND       PRES   REMARKS
SANTA BARBARA  CLEAR     56  49  77 NE3       29.96R
SANDBERG       CLEAR     66  22  18 S15       30.15S
MT. WILSON       N/A     63  19  19 S9          N/A
LAS VEGAS NV   CLEAR     67  36  31 SW8       30.01R
PHOENIX AZ     CLEAR     76  50  40 CALM      29.98R
TIJUANA          N/A    N/A N/A N/A MISG        N/A

$$

OFFSHORE ISLANDS

CITY           SKY/WX    TMP DP  RH WIND       PRES   REMARKS
CATALINA ARPT  CLEAR     76   6   7 S3        30.01S

$$

MARINE AND OFFSHORE BUOY REPORTS

STATION/POSITION SKY/WX   TEMP    WIND        PRES    SWELL
                          AIR SEA DIR/SP/G            HT/PER/DIR
                          (F)     (DEG/KT/KT) (MB)    (FT/S/D)
TANNER BANKS               67 68  320/ 10/ 12 1014.6R   8/320/13
S CLEMENTE BASIN           69 71  280/  6/  8 1014.3R   5/290/13
SAN NICOLAS IS.               66                N/A     5/300/12
SO. S. ROSA ISLA           65 69  330/ 16/ 17 1013.8R   7/13
W. S. BARBARA CH           62 63  320/ 14/ 17 1013.6R   7/320/13
M. S. BARBARA CH           66     210/  6       N/A
S. MONICA BASIN            68 71  230/  2/  4 1014.3R   3/270/11
S PEDRO CHANNEL               70                N/A     2/280/13
DANA POINT                    70                N/A     2/270/13
CMP PENDLETON NS              70                N/A     2/220/17
OCEANSIDE OFFSHR              71                N/A     2/210/17
TORREY PINES OTR              72                N/A     2/270/12
LA JOLLA 1                 68 71   CALM  /  2 1014.4S
MISSION BAY BUOY              72                N/A     3/280/13
SAN DIEGO BAY                 74              1014.8R
POINT LOMA SOUTH              72                N/A     3/280/12

$$




USA.gov is the U.S. government's official web portal to all federal, state and local government web resources and services.